Find Starlink 3834

NORAD ID: 52368 Int'l Des: 2022-045 Owner: SPXS Country: US Constellation: starlink operational
LEOCIRCULAR

Current View

Loading 3D Globe...

About Starlink 3834

Description loading...

Upcoming Passes

Passes for default location (London). Set your location on the main map for personalized predictions.

Altitude History

Loading altitude history...

Two-Line Element Set

1 52368U 22045AP 26150.17248911 .00000799 00000-0 68285-4 0 9992
2 52368 53.1958 183.3250 0001121 73.1204 286.9910 15.08826493228217
Epoch: May 30, 2026 • Age: 11 hours

Current Status

Altitude 539.8 km
Velocity 7.60 km/s
Sub-Earth Point 20.41°N, 78.42°E
Launch Date Apr 29, 2022
Age 4 years
Type internet

Technical Details

Classification Payload
Mass 297.00 kg
Dry Mass 275.00 kg
Total Mass 297.00 kg
Length 0.20 m
Diameter 2.80 m
Span 9.00 m
Shape Box + pan
Manufacturer SPXS
Bus Type Starlink
Phase Status In Orbit
Owner/State SPXS/US

Most Searched